Location: Melbourne
(37.8170°S, 144.9670°E)
Time: 06:49:50
(UTC+10:00)

Transit 2A - All Passes

Search period start: 26 May 2016 00:00
Search period end: 05 June 2016 00:00
Orbit: 593 x 967 km, 66.7° (Epoch: 25 May)

Date Brightness Start Highest point End Pass type
(mag) Time Alt. Az. Time Alt. Az. Time Alt. Az.
26 May - 04:01:43 10° S 04:05:42 33° SE 04:09:38 10° ENE visible
26 May - 05:45:23 10° WSW 05:48:35 20° WNW 05:51:47 10° NNW visible
26 May - 18:38:44 10° N 18:44:13 48° ENE 18:49:13 10° SE visible
26 May - 20:23:13 10° WNW 20:27:34 23° SW 20:31:36 10° S visible
27 May - 03:28:10 10° S 03:31:37 22° SE 03:35:01 10° ENE visible
27 May - 05:10:54 10° SW 05:14:46 32° WNW 05:18:40 10° N visible
27 May - 18:05:19 10° N 18:10:21 32° ENE 18:14:59 10° SE visible
27 May - 19:48:30 10° WNW 19:53:29 33° SW 19:58:03 10° S visible
28 May - 02:54:53 10° SSE 02:57:27 15° SE 03:00:00 10° E night (unlit)
28 May - 04:36:41 10° SW 04:40:55 53° WNW 04:45:10 10° N visible
28 May - 17:32:15 10° NNE 17:36:30 22° ENE 17:40:29 10° ESE visible
28 May - 19:14:03 10° NW 19:19:27 47° WSW 19:24:22 10° SSE visible
29 May - 02:22:40 10° SE 02:23:13 10° SE 02:23:46 10° SE night (unlit)
29 May - 04:02:38 10° SSW 04:07:01 87° WNW 04:11:24 10° NNE visible
29 May - 16:59:48 10° NE 17:02:43 14° ENE 17:05:30 10° ESE daylight
29 May - 18:39:51 10° NW 18:45:28 70° WSW 18:50:33 10° SSE visible
29 May - 20:28:28 10° SW 20:29:24 10° SW 20:30:18 10° SSW visible
30 May - 03:28:45 10° SSW 03:33:04 58° ESE 03:37:23 10° NE night (unlit)
30 May - 05:14:31 10° W 05:15:38 11° WNW 05:16:45 10° WNW night (unlit)
30 May - 18:05:51 10° NNW 18:11:31 80° ENE 18:16:38 10° SSE visible
30 May - 19:52:10 10° W 19:55:10 15° SW 19:58:01 10° SSW visible
31 May - 02:55:00 10° SSW 02:59:04 36° ESE 03:03:06 10° NE night (unlit)
31 May - 04:38:56 10° WSW 04:41:53 18° WNW 04:44:51 10° NNW night (unlit)
31 May - 17:32:07 10° N 17:37:36 53° ENE 17:42:35 10° SE visible
31 May - 19:16:57 10° W 19:21:00 21° SW 19:24:47 10° S visible
01 Jun - 02:21:24 10° S 02:25:00 24° SE 02:28:34 10° ENE night (unlit)
01 Jun - 04:04:20 10° SW 04:08:05 28° WNW 04:11:52 10° N night (unlit)
01 Jun - 16:58:37 10° N 17:03:43 36° ENE 17:08:23 10° SE daylight
01 Jun - 18:42:08 10° WNW 18:46:53 29° SW 18:51:17 10° S visible
02 Jun - 01:48:01 10° S 01:50:51 17° SE 01:53:40 10° E night (unlit)
02 Jun - 03:30:04 10° SW 03:34:14 46° WNW 03:38:27 10° N night (unlit)
02 Jun - 16:25:28 10° NNE 16:29:52 24° ENE 16:33:58 10° ESE daylight
02 Jun - 18:07:37 10° NW 18:12:51 42° WSW 18:17:37 10° SSE visible
03 Jun - 01:15:15 10° SSE 01:16:39 11° SE 01:18:02 10° ESE night (unlit)
03 Jun - 02:55:59 10° SSW 03:00:21 77° WNW 03:04:45 10° NNE night (unlit)
03 Jun - 15:52:49 10° NE 15:56:03 16° ENE 15:59:09 10° ESE daylight
03 Jun - 17:33:21 10° NW 17:38:51 63° WSW 17:43:51 10° SSE visible
04 Jun - 02:22:04 10° SSW 02:26:25 66° ESE 02:30:46 10° NE night (unlit)
04 Jun - 16:59:18 10° NNW 17:04:54 88° ENE 17:09:57 10° SSE daylight
04 Jun - 18:46:05 10° WSW 18:48:36 13° SW 18:51:01 10° SSW visible
